Tacoma Narrows, WA
on Tuesday, December 4, 2012

Tuesday
Previous Day Next Day
Daily Summary
 ActualAverageRecord
Temperature
Mean Temperature °F °F  
Max Temperature 52°F 45°F 63°F (2006)
Min Temperature 44°F 38°F 26°F (2013)
Degree Days
Heating Degree Days 17    
Moisture
Dew Point 44°F   
Average Humidity 86    
Maximum Humidity 94    
Minimum Humidity 77    
Precipitation
Precipitation 0.67 in in in ()
Wind
Wind Speed 9 mph   
Max Wind Speed 21 mph   
Max Gust Speed 28 mph   
Visibility 8 miles   
Events Rain   
Averages and records for this station are not official NWS values.
Key: T is trace of precipitation, MM is missing value
Source: NWS Daily Summary
Seasonal Weather Averages
Time(PST)TemperatureDew PointHumidity Pressure Visibility Wind DirectionWind SpeedGust SpeedPrecipitationEvents Conditions
12:53 AM 48.0°F 43.0°F 83% 29.60 in 5.0 miles South 4.6 mph - 0.08 in Rain Rain
1:53 AM 46.9°F 42.1°F 83% 29.57 in 5.0 miles Calm Calm - 0.15 in Rain Light Rain
2:30 AM 46.4°F 44.6°F 93% 29.56 in 3.0 miles Calm Calm - 0.05 in Rain Light Rain
2:53 AM 46.0°F 44.1°F 93% 29.55 in 3.0 miles Calm Calm - 0.08 in Rain Light Rain
3:45 AM 46.4°F 44.6°F 93% 29.54 in 5.0 miles South 6.9 mph - 0.02 in   Overcast
3:53 AM 46.0°F 44.1°F 93% 29.55 in 5.0 miles South 6.9 mph - 0.03 in   Overcast
4:16 AM 46.4°F 44.6°F 93% 29.53 in 10.0 miles SSE 8.1 mph - N/A   Overcast
4:53 AM 48.9°F 45.0°F 86% 29.56 in 10.0 miles South 13.8 mph 20.7 mph 0.00 in Rain Light Rain
5:53 AM 52.0°F 48.0°F 86% 29.60 in 10.0 miles South 17.3 mph 26.5 mph 0.00 in   Overcast
6:22 AM 51.8°F 48.2°F 88% 29.62 in 10.0 miles South 15.0 mph 21.9 mph 0.00 in   Overcast
6:42 AM 51.8°F 48.2°F 88% 29.64 in 5.0 miles South 12.7 mph - 0.00 in Rain Light Rain
6:53 AM 51.1°F 48.9°F 92% 29.66 in 4.0 miles South 15.0 mph 24.2 mph 0.02 in Rain Light Rain
7:00 AM 51.8°F 48.2°F 88% 29.66 in 6.0 miles South 17.3 mph 24.2 mph 0.00 in Rain Light Rain
7:53 AM 51.1°F 48.0°F 89% 29.68 in 10.0 miles South 15.0 mph 24.2 mph 0.01 in Rain Light Rain
8:08 AM 51.8°F 48.2°F 88% 29.69 in 10.0 miles South 16.1 mph 25.3 mph 0.00 in   Overcast
8:49 AM 51.8°F 48.2°F 88% 29.72 in 10.0 miles SSW 10.4 mph 23.0 mph 0.00 in   Overcast
8:53 AM 51.1°F 46.9°F 86% 29.73 in 10.0 miles SSW 13.8 mph 20.7 mph 0.00 in   Overcast
9:04 AM 50.0°F 48.2°F 94% 29.73 in 6.0 miles SW 9.2 mph 18.4 mph 0.01 in Rain Light Rain
9:13 AM 50.0°F 46.4°F 87% 29.73 in 10.0 miles SSW 12.7 mph 19.6 mph 0.01 in Rain Light Rain
9:53 AM 50.0°F 44.6°F 82% 29.75 in 10.0 miles SW 10.4 mph - N/A   Mostly Cloudy
10:53 AM 50.0°F 45.0°F 83% 29.77 in 10.0 miles South 15.0 mph 23.0 mph N/A   Mostly Cloudy
10:57 AM 50.0°F 44.6°F 82% 29.77 in 10.0 miles South 16.1 mph 23.0 mph N/A   Mostly Cloudy
11:53 AM 51.1°F 44.1°F 77% 29.77 in 10.0 miles South 15.0 mph 21.9 mph N/A   Mostly Cloudy
12:53 PM 50.0°F 44.1°F 80% 29.76 in 10.0 miles South 17.3 mph - 0.00 in Rain Light Rain
1:53 PM 50.0°F 44.1°F 80% 29.75 in 10.0 miles South 13.8 mph - 0.00 in   Overcast
2:53 PM 50.0°F 44.1°F 80% 29.74 in 10.0 miles South 16.1 mph 23.0 mph N/A   Mostly Cloudy
3:21 PM 46.4°F 42.8°F 87% 29.75 in 2.5 miles WSW 9.2 mph 19.6 mph 0.04 in Rain Rain
3:23 PM 46.4°F 42.8°F 87% 29.75 in 8.0 miles SW 9.2 mph 19.6 mph 0.04 in Rain Rain
3:53 PM 48.0°F 44.1°F 86% 29.76 in 8.0 miles SSW 8.1 mph - 0.05 in   Overcast
4:00 PM 48.2°F 44.6°F 87% 29.75 in 10.0 miles South 10.4 mph - N/A   Overcast
4:53 PM 48.9°F 44.1°F 83% 29.75 in 10.0 miles South 12.7 mph - 0.00 in   Overcast
5:53 PM 48.9°F 43.0°F 80% 29.73 in 10.0 miles SSW 11.5 mph - 0.01 in Rain Light Rain
6:48 PM 46.4°F 41.0°F 81% 29.75 in 2.5 miles SW 12.7 mph 26.5 mph 0.11 in Rain Heavy Rain
6:49 PM 45.0°F 41.0°F 86% 29.75 in 2.5 miles SW 11.5 mph 26.5 mph 0.11 in Rain Heavy Rain
6:56 PM 44.6°F 41.0°F 87% 29.75 in 5.0 miles SW 8.1 mph 21.9 mph 0.01 in Rain Light Rain
7:53 PM 46.0°F 42.1°F 86% 29.75 in 10.0 miles South 12.7 mph - 0.07 in   Overcast
8:53 PM 46.0°F 42.1°F 86% 29.78 in 10.0 miles South 20.7 mph 26.5 mph 0.00 in   Overcast
9:36 PM 46.4°F 42.8°F 87% 29.79 in 7.0 miles SSW 16.1 mph 27.6 mph 0.01 in Rain Light Rain
9:50 PM 46.4°F 42.8°F 87% 29.80 in 10.0 miles SSW 13.8 mph 21.9 mph 0.01 in   Overcast
9:53 PM 46.0°F 41.0°F 83% 29.81 in 10.0 miles SSW 11.5 mph - 0.01 in   Overcast
10:53 PM 46.9°F 39.9°F 77% 29.83 in 10.0 miles SSW 13.8 mph 21.9 mph N/A   Overcast
11:53 PM 45.0°F 39.9°F 82% 29.87 in 10.0 miles SSW 11.5 mph 25.3 mph 0.05 in   Overcast
Moon Phase
Dec. 04 Dec. 06 Dec. 13 Dec. 20 Dec. 28
Sunrise:07:40 AM (PST) Moon Rise:10:30 PM (PST)12/4
Sunset:04:20 PM (PST) Moon Set:11:22 AM (PST)12/4

Copyright © 2014 The Weather Underground, Inc.